Powrót do katalogu

STARLINK-34925

AktywnyŁącznośćSSO
NORAD 65249·PAYLOAD·🇺🇸 United States

Wystrzelony Aug 18, 2025 z Vandenberg Space Force Base

Loading…

Następne Przeloty (najbliższe 24 godziny)

TLE

ŚwieżeSource: CelesTrak SupGP

Epoka: Sep 15, 2026, 03:45 UTC

1 65249C 25179Q   26258.15673611 -.00022456  00000+0 -69705-3 0  2581
2 65249  97.2829 297.5606 0001065  89.2312 279.6142 15.33453333    12

Śledź STARLINK-34925 w czasie rzeczywistym z AllMySat

Download on the App Store